When you browse on this site, cookies collect data to enhance your experience and personalize the content and advertising you see.
Visit our Privacy Policy to learn more. By continuing to use the site, you agree to this use of cookies and data.
  • In Latvia
  • List of Countries
  • For 7 days
  • Water Temperature
  • Weather Map
  • Weather Widgets
  • user-avatar
    Login

    Hourly Weather Riga

    Today, 21 October, Monday

    Time Temperature Precipitation Wind Pressure Humidity
    00:00 +12°C° 0.3 mm 3 mps 759 mmHg 93%
    01:00 +12°C° 0.3 mm 3 mps 760 mmHg 92%
    02:00 +13°C° 0 mm 2 mps 760 mmHg 91%
    03:00 +13°C° 0.6 mm 2 mps 760 mmHg 93%
    04:00 +13°C° 0.6 mm 2 mps 760 mmHg 94%
    05:00 +12°C° 0.6 mm 2 mps 760 mmHg 95%
    06:00 +12°C° 0.2 mm 2 mps 761 mmHg 95%
    07:00 +12°C° 0.2 mm 2 mps 761 mmHg 95%
    08:00 +12°C° 0 mm 2 mps 762 mmHg 96%
    09:00 +13°C° 0.1 mm 2 mps 762 mmHg 92%
    10:00 +13°C° 0.1 mm 2 mps 763 mmHg 89%
    11:00 +14°C° 0.1 mm 2 mps 763 mmHg 86%
    12:00 +14°C° 0 mm 2 mps 764 mmHg 84%
    13:00 +14°C° 0 mm 2 mps 764 mmHg 82%
    14:00 +14°C° 0 mm 2 mps 764 mmHg 80%
    15:00 +13°C° 0 mm 2 mps 764 mmHg 83%
    16:00 +12°C° 0 mm 2 mps 764 mmHg 86%
    17:00 +10°C° 0 mm 2 mps 764 mmHg 89%
    18:00 +9°C° 0 mm 2 mps 765 mmHg 90%
    19:00 +9°C° 0 mm 2 mps 765 mmHg 91%
    20:00 +9°C° 0 mm 1 mps 765 mmHg 91%
    21:00 +8°C° 0 mm 2 mps 765 mmHg 91%
    22:00 +8°C° 0 mm 2 mps 765 mmHg 90%
    23:00 +8°C° 0 mm 2 mps 765 mmHg 90%

    Tomorrow, 22 October, Tuesday

    Time Temperature Precipitation Wind Pressure Humidity
    00:00 +8°C° 0 mm 2 mps 764 mmHg 90%
    01:00 +9°C° 0 mm 2 mps 764 mmHg 91%
    02:00 +9°C° 0 mm 2 mps 764 mmHg 92%
    03:00 +9°C° 0 mm 2 mps 764 mmHg 93%
    04:00 +9°C° 0 mm 3 mps 763 mmHg 94%
    05:00 +9°C° 0 mm 3 mps 763 mmHg 95%
    06:00 +10°C° 0 mm 3 mps 762 mmHg 95%
    07:00 +10°C° 0 mm 3 mps 762 mmHg 96%
    08:00 +10°C° 0 mm 4 mps 762 mmHg 97%
    09:00 +12°C° 0 mm 4 mps 762 mmHg 92%
    10:00 +13°C° 0 mm 4 mps 762 mmHg 88%
    11:00 +14°C° 0 mm 4 mps 762 mmHg 84%
    12:00 +15°C° 0 mm 4 mps 762 mmHg 80%
    13:00 +15°C° 0 mm 4 mps 762 mmHg 76%
    14:00 +17°C° 0 mm 4 mps 762 mmHg 72%
    15:00 +15°C° 0 mm 4 mps 762 mmHg 76%
    16:00 +14°C° 0 mm 4 mps 762 mmHg 79%
    17:00 +13°C° 0 mm 4 mps 761 mmHg 82%
    18:00 +13°C° 0 mm 4 mps 762 mmHg 84%
    19:00 +12°C° 0 mm 4 mps 762 mmHg 87%
    20:00 +11°C° 0 mm 4 mps 762 mmHg 89%
    21:00 +11°C° 0 mm 4 mps 762 mmHg 89%
    22:00 +11°C° 0 mm 4 mps 762 mmHg 89%
    23:00 +11°C° 0 mm 4 mps 761 mmHg 89%

    Day after tomorrow, 23 October, Wednesday

    Time Temperature Precipitation Wind Pressure Humidity
    00:00 +10°C° 0 mm 4 mps 762 mmHg 89%
    01:00 +10°C° 0 mm 4 mps 762 mmHg 90%
    02:00 +10°C° 0 mm 4 mps 762 mmHg 90%
    03:00 +10°C° 0 mm 4 mps 762 mmHg 91%
    04:00 +10°C° 0 mm 4 mps 761 mmHg 91%
    05:00 +10°C° 0 mm 4 mps 761 mmHg 92%
    06:00 +10°C° 0 mm 4 mps 761 mmHg 90%
    07:00 +11°C° 0 mm 3 mps 761 mmHg 88%
    08:00 +11°C° 0 mm 3 mps 761 mmHg 85%
    09:00 +11°C° 0 mm 4 mps 762 mmHg 83%
    10:00 +12°C° 0 mm 4 mps 762 mmHg 80%
    11:00 +12°C° 0 mm 4 mps 762 mmHg 77%
    12:00 +12°C° 0 mm 4 mps 762 mmHg 74%
    13:00 +12°C° 0 mm 4 mps 762 mmHg 70%
    14:00 +12°C° 0 mm 4 mps 763 mmHg 67%
    15:00 +12°C° 0 mm 3 mps 763 mmHg 70%
    16:00 +11°C° 0 mm 3 mps 763 mmHg 74%
    17:00 +10°C° 0 mm 3 mps 763 mmHg 77%
    18:00 +10°C° 0 mm 3 mps 763 mmHg 78%
    19:00 +10°C° 0 mm 3 mps 763 mmHg 78%
    20:00 +10°C° 0 mm 3 mps 763 mmHg 79%
    21:00 +10°C° 0 mm 3 mps 763 mmHg 80%
    22:00 +9°C° 0 mm 3 mps 763 mmHg 80%
    23:00 +9°C° 0 mm 3 mps 763 mmHg 81%

    24 October, Thursday

    Time Temperature Precipitation Wind Pressure Humidity
    00:00 +9°C° 0 mm 3 mps 763 mmHg 81%
    01:00 +9°C° 0 mm 3 mps 764 mmHg 81%
    02:00 +9°C° 0 mm 3 mps 764 mmHg 81%
    03:00 +9°C° 0 mm 3 mps 764 mmHg 81%
    04:00 +9°C° 0 mm 3 mps 764 mmHg 81%
    05:00 +8°C° 0 mm 2 mps 764 mmHg 82%
    06:00 +8°C° 0 mm 3 mps 764 mmHg 83%
    07:00 +8°C° 0 mm 3 mps 764 mmHg 84%
    08:00 +8°C° 0 mm 3 mps 764 mmHg 86%
    09:00 +8°C° 0 mm 3 mps 764 mmHg 83%
    10:00 +9°C° 0 mm 3 mps 764 mmHg 80%
    11:00 +10°C° 0 mm 3 mps 764 mmHg 78%
    12:00 +11°C° 0 mm 3 mps 764 mmHg 76%
    13:00 +11°C° 0 mm 3 mps 764 mmHg 75%
    14:00 +13°C° 0 mm 2 mps 764 mmHg 73%
    15:00 +12°C° 0 mm 2 mps 764 mmHg 77%
    16:00 +10°C° 0 mm 2 mps 764 mmHg 81%
    17:00 +9°C° 0 mm 2 mps 763 mmHg 85%
    18:00 +9°C° 0 mm 3 mps 763 mmHg 86%
    19:00 +9°C° 0 mm 3 mps 763 mmHg 86%
    20:00 +8°C° 0 mm 3 mps 763 mmHg 86%
    21:00 +8°C° 0 mm 3 mps 763 mmHg 86%
    22:00 +7°C° 0 mm 4 mps 763 mmHg 85%
    23:00 +7°C° 0 mm 4 mps 763 mmHg 84%

    25 October, Friday

    Time Temperature Precipitation Wind Pressure Humidity
    00:00 +7°C° 0 mm 4 mps 763 mmHg 84%
    01:00 +7°C° 0 mm 4 mps 762 mmHg 83%
    02:00 +7°C° 0 mm 4 mps 762 mmHg 83%
    03:00 +7°C° 0 mm 4 mps 762 mmHg 83%
    04:00 +6°C° 0 mm 4 mps 761 mmHg 84%
    05:00 +6°C° 0 mm 4 mps 761 mmHg 85%
    06:00 +7°C° 0 mm 5 mps 760 mmHg 88%
    07:00 +7°C° 0 mm 5 mps 760 mmHg 90%
    08:00 +7°C° 0 mm 5 mps 759 mmHg 93%
    09:00 +8°C° 0 mm 5 mps 759 mmHg 92%
    10:00 +9°C° 0 mm 5 mps 759 mmHg 91%
    11:00 +10°C° 0 mm 5 mps 759 mmHg 90%
    12:00 +12°C° 0 mm 5 mps 759 mmHg 89%
    13:00 +12°C° 0 mm 5 mps 759 mmHg 88%
    14:00 +13°C° 0 mm 5 mps 759 mmHg 88%
    15:00 +13°C° 0 mm 5 mps 759 mmHg 88%
    16:00 +13°C° 0 mm 4 mps 759 mmHg 88%
    17:00 +13°C° 0 mm 4 mps 759 mmHg 88%
    18:00 +13°C° 0 mm 5 mps 760 mmHg 87%
    19:00 +13°C° 0 mm 5 mps 760 mmHg 85%
    20:00 +13°C° 0 mm 5 mps 760 mmHg 84%
    21:00 +12°C° 0 mm 5 mps 761 mmHg 84%
    22:00 +12°C° 0 mm 5 mps 761 mmHg 85%
    23:00 +10°C° 0 mm 5 mps 761 mmHg 86%

    26 October, Saturday

    Time Temperature Precipitation Wind Pressure Humidity
    00:00 +10°C° 0 mm 5 mps 761 mmHg 85%
    01:00 +10°C° 0 mm 5 mps 761 mmHg 84%
    02:00 +9°C° 0 mm 5 mps 762 mmHg 82%
    03:00 +9°C° 0 mm 5 mps 762 mmHg 81%
    04:00 +8°C° 0 mm 5 mps 762 mmHg 80%
    05:00 +8°C° 0 mm 5 mps 762 mmHg 79%
    06:00 +7°C° 0 mm 4 mps 762 mmHg 80%
    07:00 +7°C° 0 mm 4 mps 763 mmHg 81%
    08:00 +8°C° 0 mm 3 mps 763 mmHg 81%
    09:00 +9°C° 0 mm 3 mps 763 mmHg 77%
    10:00 +10°C° 0 mm 3 mps 763 mmHg 73%
    11:00 +11°C° 0 mm 3 mps 763 mmHg 69%
    12:00 +11°C° 0 mm 4 mps 763 mmHg 68%
    13:00 +12°C° 0 mm 4 mps 762 mmHg 67%
    14:00 +13°C° 0 mm 5 mps 762 mmHg 66%
    15:00 +12°C° 0 mm 5 mps 761 mmHg 70%
    16:00 +12°C° 0 mm 5 mps 761 mmHg 75%
    17:00 +10°C° 0 mm 5 mps 760 mmHg 79%
    18:00 +10°C° 0 mm 5 mps 759 mmHg 80%
    19:00 +10°C° 0 mm 6 mps 759 mmHg 81%
    20:00 +11°C° 0 mm 6 mps 758 mmHg 81%
    21:00 +11°C° 0 mm 6 mps 758 mmHg 82%
    22:00 +11°C° 0 mm 6 mps 758 mmHg 82%
    23:00 +13°C° 0 mm 6 mps 757 mmHg 83%

    27 October, Sunday

    Time Temperature Precipitation Wind Pressure Humidity
    00:00 +13°C° 0 mm 6 mps 757 mmHg 84%
    01:00 +13°C° 0 mm 6 mps 756 mmHg 85%
    02:00 +13°C° 0 mm 6 mps 756 mmHg 86%
    03:00 +13°C° 0.3 mm 6 mps 756 mmHg 86%
    04:00 +13°C° 0.3 mm 6 mps 756 mmHg 86%
    05:00 +13°C° 0.3 mm 5 mps 756 mmHg 87%
    06:00 +12°C° 0.2 mm 5 mps 756 mmHg 84%
    07:00 +10°C° 0.2 mm 5 mps 756 mmHg 82%
    08:00 +9°C° 0.2 mm 5 mps 756 mmHg 79%
    09:00 +9°C° 0 mm 5 mps 756 mmHg 74%
    10:00 +9°C° 0 mm 5 mps 757 mmHg 69%
    11:00 +9°C° 0 mm 6 mps 757 mmHg 64%
    12:00 +9°C° 0 mm 6 mps 757 mmHg 62%
    13:00 +9°C° 0 mm 6 mps 757 mmHg 61%
    14:00 +9°C° 0 mm 6 mps 757 mmHg 59%
    15:00 +9°C° 0 mm 7 mps 756 mmHg 60%
    16:00 +8°C° 0 mm 7 mps 756 mmHg 61%
    17:00 +8°C° 0 mm 7 mps 756 mmHg 62%
    18:00 +8°C° 0 mm 7 mps 756 mmHg 63%
    19:00 +6°C° 0 mm 7 mps 756 mmHg 64%
    20:00 +6°C° 0 mm 7 mps 756 mmHg 65%
    21:00 +6°C° 0 mm 7 mps 756 mmHg 65%
    22:00 +6°C° 0 mm 7 mps 756 mmHg 66%
    23:00 +6°C° 0 mm 7 mps 755 mmHg 66%
    Show more